sat.trackr.live / text

‹ back to catalog

STARLINK-5991

NORAD 56331 · 2023-058Q

PAYLOAD ACTIVE UNKNOWN

§ Identity

Operator
Country
US
Launch date
2023-04-27
Launch site
AFWTR
Launch vehicle
Mass (kg)
RCS (m²)

Purposes: comms

External: N2YO · Heavens-Above · Gunter

§ Orbital elements

Epoch: 2026-05-25T00:05:30.090336Z

Period
95.64 min
Inclination
97.4480°
Eccentricity
0.0002237
Mean motion
15.05662947 rev/d
Perigee alt
547.9 km
Apogee alt
551.0 km
Semi-major
6,927.6 km
B*
-2.1961e-4
RAAN
144.9124°
Arg perigee
102.0558°
Mean anomaly
258.0920°
Rev number
16,960

§ Raw data

STARLINK-59911 56331U 23058Q   26145.00382049 -.00003227  00000+0 -21961-3 0  99972 56331  97.4480 144.9124 0002237 102.0558 258.0920 15.05662947169605

JSON: /api/v1/satellites/56331 · /tle

For live sub-satellite position, see the globe view (requires WebGL).

§ Visibility from observer

Set your observer location to see the next 7 days of passes ≥ 10°. The values pass through the URL so the page stays shareable.

No JS? Fill the form by hand. The geolocation button needs JavaScript.